Tracking 19920 objects as of 14-Oct-2019
HD Live streaming from Space Station
objects crossing your sky now

DMSP 5D-2 F11 DEB

Track DMSP 5D-2 F11 DEB now!
10-day predictions


NORAD ID: 28309
Int'l Code: 1991-082W
Perigee: 814.9 km
Apogee: 838.2 km
Inclination: 98.8 °
Period: 101.3 minutes
Semi major axis: 7197 km
RCS: 0.0137 m2 (small)
Launch date: November 28, 1991
Source: United States (US)
Launch site: AIR FORCE WESTERN TEST RANGE (AFWTR)

Note: This is SATELLITE DEBRIS
aabbcc
Your satellite tracking list
Your tracking list is empty




NASA's NSSDC Master Catalog

Two Line Element Set (TLE):
1 28309U 91082W   19286.95474664 -.00000000  00000-0  19955-4 0  9997
2 28309  98.7833 286.4361 0016176  86.6095 338.8064 14.21750421803030
Source of the keplerian elements: AFSPC